Location: downtown San Diego
(32.7310°N, 117.1990°W)
Time: 17:57:38
(UTC-07:00)

Cosmos 1538 Rocket - Pass Details

Date: 19 May 2017
Orbit: 753 x 792 km, 74.0° (Epoch: 26 May)

Event Time Altitude Azimuth Distance (km) Brightness Sun altitude
Rises 20:29:47 0° 176° (S) 3,192 6.9 -9.4°
Reaches altitude 10° 20:32:16 10° 168° (SSE) 2,268 6.0 -9.8°
Maximum altitude 20:37:00 39° 101° (E) 1,125 4.4 -10.7°
Drops below altitude 10° 20:41:45 10° 34° (NE) 2,279 6.5 -11.5°
Sets 20:44:15 0° 27° (NNE) 3,209 7.3 -11.9°
